Theta_e
338 331 316 312 300 298 299 308 321 318 321 328 329 324 320 329 324 314 342 350 355 356 361 362 363 363 361 359 359 358 358 360 361 361 362 362 360 360 360 360 361 359 358 358 357 357 358 358 358
322 321 312 302 295 292 295 309 316 317 324 328 324 326 329 329 339 339 342 352 355 357 360 359 364 363 362 360 359 359 359 359 359 361 361 362 362 360 359 359 360 357 356 356 355 355 355 356 357
318 313 306 297 292 293 296 312 317 323 326 326 322 326 328 333 341 340 346 355 355 355 359 360 364 362 362 360 359 359 359 359 359 360 361 361 361 361 360 358 358 356 355 354 355 355 355 355 355
312 306 302 295 292 297 309 316 323 322 324 328 325 320 335 345 342 344 351 355 353 353 357 363 364 363 362 361 360 360 359 360 360 360 361 360 360 359 358 357 356 355 354 354 354 355 355 355 356
306 301 295 290 293 298 313 321 317 316 321 323 325 321 334 342 345 347 349 352 350 352 358 360 363 363 362 360 359 360 361 361 361 360 359 359 359 359 358 356 355 353 351 352 353 354 355 355 355
302 298 291 290 294 301 316 322 319 317 319 321 322 331 333 342 342 345 347 348 352 352 356 359 363 363 361 361 361 360 360 360 360 361 360 360 359 358 357 356 355 354 354 353 352 353 352 352 352
300 295 292 292 295 299 305 319 318 319 318 318 327 331 332 336 342 344 343 345 349 352 354 356 357 359 362 361 360 360 359 359 359 359 359 359 358 357 357 356 356 355 355 355 355 355 356 355 355
303 297 292 295 296 297 311 319 321 319 319 331 339 329 326 336 343 342 339 341 342 346 350 352 353 355 355 356 360 360 360 360 359 359 359 358 358 357 358 356 356 358 358 359 358 358 358 357 356
302 294 291 295 298 300 304 302 307 325 323 326 340 337 340 343 342 336 336 336 339 341 341 345 349 349 350 351 356 359 359 359 358 358 358 354 350 351 354 356 357 358 358 359 359 358 357 357 356
299 293 295 300 303 302 304 304 304 318 321 325 333 340 342 343 336 332 330 331 334 336 340 343 344 345 346 351 349 348 350 350 349 348 348 345 344 344 349 351 356 356 357 356 357 355 354 353 348
297 295 300 303 309 307 305 304 306 308 315 327 327 336 340 339 334 331 330 331 332 336 340 342 343 344 343 345 345 346 347 346 346 347 346 331 328 331 337 331 326 337 335 333 329 327 327 328 334
293 299 301 303 305 305 304 306 304 306 315 326 335 339 340 338 335 332 331 331 333 335 338 340 341 342 341 344 343 344 344 345 335 326 327 325 324 322 322 322 323 323 322 321 321 321 323 324 325
293 298 301 304 304 302 305 303 305 304 310 327 339 340 339 339 339 339 337 337 337 334 337 339 342 341 343 342 343 345 346 338 323 325 325 322 320 319 320 321 321 320 320 319 319 321 322 322 323
297 297 299 302 303 302 304 306 304 305 310 317 337 338 339 339 340 341 340 339 338 337 339 342 344 345 346 341 339 339 333 323 322 323 322 320 318 317 318 319 318 317 317 318 319 320 321 320 321
297 294 297 298 301 300 304 302 301 306 324 330 334 336 339 340 342 341 342 341 340 341 343 344 342 338 339 330 330 328 324 322 320 319 320 320 317 317 317 317 317 315 317 319 320 319 319 318 320
292 290 289 294 299 302 302 296 312 308 321 325 332 334 335 335 337 342 344 343 344 342 339 341 341 331 324 321 322 325 321 319 318 318 320 319 318 317 315 317 317 316 318 318 318 317 316 316 316
288 286 287 293 298 300 300 295 304 310 311 317 325 328 329 320 331 337 344 345 337 337 334 331 326 324 321 319 321 320 319 319 318 317 318 319 319 317 315 315 315 316 315 315 316 315 315 314 315
285 285 287 290 294 296 297 295 301 306 313 316 318 318 320 323 332 338 344 336 331 330 330 327 324 322 320 321 320 319 319 318 316 316 316 318 317 317 315 314 315 314 313 314 315 314 315 315 316
291 289 289 291 295 294 295 295 299 302 310 310 315 316 314 322 335 341 335 329 326 326 325 323 321 322 322 321 320 316 316 316 315 315 317 317 316 316 314 313 314 314 313 313 314 313 313 313 316
290 288 287 291 294 293 293 294 298 301 303 312 313 314 312 314 327 331 330 327 325 323 324 321 322 322 322 322 317 316 316 316 314 315 316 316 316 315 314 313 313 313 311 311 312 313 312 312 313
289 287 288 289 293 293 292 290 294 300 302 305 308 313 312 313 325 327 327 326 325 321 322 321 321 323 321 320 318 316 316 316 314 313 313 315 316 316 314 314 313 312 312 311 311 313 311 309 310
287 293 294 292 288 285 291 283 289 294 299 301 307 305 308 310 325 326 325 326 325 323 323 321 321 322 320 321 318 319 315 313 313 313 314 314 316 316 316 315 314 312 312 311 312 314 310 310 308
292 296 293 293 288 285 286 283 287 291 294 298 304 308 309 309 321 325 326 327 326 326 322 322 321 322 321 321 320 319 313 312 313 314 314 313 314 315 317 315 313 312 312 312 312 312 311 311 309
298 294 291 288 286 281 289 286 284 288 293 295 300 306 307 309 317 324 327 326 325 323 322 322 320 320 321 322 320 319 318 315 314 313 313 312 312 314 316 316 313 313 312 313 312 312 312 310 309
294 288 282 280 280 282 287 284 286 293 295 297 298 301 304 308 310 320 322 322 321 319 321 321 320 319 320 321 321 319 318 317 315 314 313 312 312 312 313 313 313 313 313 313 312 310 310 310 310
290 289 283 279 278 283 288 285 290 296 299 299 299 300 302 303 308 312 319 321 320 318 320 322 320 318 320 321 320 317 316 318 316 316 314 313 313 312 313 312 311 312 313 313 312 311 311 311 311
292 286 290 286 284 281 285 290 294 296 298 300 300 301 300 301 305 308 312 319 319 319 320 321 321 320 321 321 321 318 317 317 316 315 315 314 314 314 313 313 312 312 312 312 311 310 310 310 310
293 296 286 285 279 277 282 285 286 293 296 300 301 299 301 300 300 306 310 315 319 320 320 322 321 320 321 322 322 320 318 318 317 317 315 315 314 315 314 313 313 313 312 312 310 309 310 309 310
291 284 287 288 284 279 278 282 296 294 296 297 301 302 299 299 300 298 307 313 317 319 319 321 321 320 320 322 321 320 319 318 317 318 316 315 314 315 314 314 314 313 312 311 310 309 309 309 309
290 285 285 280 282 285 282 282 299 297 298 300 303 305 306 305 304 302 305 310 314 316 318 320 321 321 321 322 322 321 319 318 317 316 316 315 315 315 315 315 314 314 313 311 309 309 310 309 308
Wind_Speed
6 3 0 4 4 5 3 4 2 4 4 4 5 3 7 1 5 6 1 8 15 14 10 12 14 16 16 17 16 15 13 13 13 12 12 12 11 10 9 8 7 7 6 5 6 7 7 7 8
5 2 4 2 5 3 6 3 4 4 2 2 4 4 5 3 1 6 8 7 11 14 9 10 14 15 16 17 17 14 13 13 13 12 11 11 10 9 8 7 6 6 4 4 4 6 7 7 8
3 1 4 5 3 4 4 4 4 3 2 3 4 1 1 2 2 9 7 13 12 13 13 9 14 15 16 16 16 14 13 12 13 12 11 10 9 8 7 6 5 4 3 2 4 6 7 8 8
3 4 5 5 5 5 5 6 7 4 6 9 4 4 1 5 8 7 13 14 14 12 12 13 14 13 14 14 15 14 13 12 11 11 10 9 8 7 6 5 4 3 2 1 2 5 7 9 9
4 3 3 3 5 6 3 11 3 6 7 17 8 3 2 4 10 16 13 12 14 13 12 10 14 14 14 14 15 13 13 12 10 10 9 8 7 6 5 4 3 2 2 1 2 4 6 8 10
3 3 3 4 5 6 3 18 3 3 9 2 6 8 2 10 16 14 12 11 9 14 13 9 13 13 13 13 13 12 11 11 10 9 8 7 6 5 4 3 2 2 2 2 3 5 7 9 10
6 5 5 6 6 4 6 2 6 8 13 6 6 9 2 11 14 16 12 9 8 9 11 9 8 11 13 13 12 12 11 10 10 9 8 7 6 5 4 3 3 3 4 4 5 7 8 9 10
5 5 3 5 6 6 3 7 6 13 15 2 13 8 8 18 16 14 10 7 6 5 7 9 8 8 7 7 13 12 11 10 9 8 7 6 5 4 3 3 4 5 6 7 8 9 10 11 11
5 3 4 6 9 5 6 3 3 5 5 9 13 5 8 12 19 14 12 7 5 5 4 5 7 7 6 6 8 11 13 11 9 7 5 3 0 2 3 3 5 6 7 8 9 10 11 13 11
5 5 10 7 5 0 1 2 4 3 7 6 5 1 21 22 20 20 18 15 13 9 7 5 6 7 6 6 6 5 6 4 4 4 3 2 1 2 3 3 6 6 7 9 8 10 10 8 4
5 7 4 3 4 4 7 4 4 4 7 10 19 15 23 20 17 19 19 21 21 15 9 8 7 7 7 6 4 2 3 3 3 4 3 5 4 4 4 3 4 4 9 4 6 6 4 7 5
3 7 3 1 3 6 9 4 5 6 7 10 11 21 20 22 20 21 19 15 13 14 13 10 8 8 6 5 4 4 4 3 3 4 6 5 4 5 4 4 4 4 3 5 5 3 5 6 6
5 8 7 8 9 9 14 9 7 8 10 9 17 22 25 20 18 16 16 15 13 14 12 12 9 8 5 6 4 4 4 4 5 5 5 4 5 5 4 4 4 4 3 4 4 4 4 5 6
5 5 6 7 11 6 12 19 11 9 8 8 22 26 24 24 22 15 16 16 17 15 14 13 11 7 7 5 6 5 5 5 5 4 5 6 5 5 5 4 4 4 4 3 3 4 4 4 4
5 5 9 7 6 7 5 14 10 8 8 11 19 21 21 21 19 19 18 19 20 16 16 14 11 8 8 7 5 5 5 6 5 5 6 7 6 6 6 4 4 3 3 5 5 5 4 4 5
4 1 4 4 2 7 10 9 30 9 12 11 18 19 20 17 22 17 17 17 18 15 15 13 11 9 8 7 6 5 5 5 5 5 5 6 6 7 6 4 4 3 4 4 4 4 5 5 5
7 5 5 9 5 5 7 7 16 10 9 12 13 13 13 8 12 17 19 20 16 16 15 13 11 11 9 7 6 6 6 5 5 4 5 6 6 6 6 4 3 4 4 4 4 3 2 2 5
6 3 5 6 2 0 7 8 10 6 12 10 12 9 9 12 20 20 19 15 15 14 14 14 11 11 8 6 6 5 4 4 4 4 5 6 5 6 6 4 4 5 4 5 4 4 3 2 5
4 3 8 5 6 5 9 6 10 6 23 15 8 10 8 13 9 12 13 15 15 14 16 17 15 12 11 8 9 5 5 3 3 3 6 6 6 6 5 4 5 5 5 4 5 3 4 4 7
6 6 7 8 4 6 10 12 10 6 11 24 26 14 13 9 10 10 14 16 19 18 17 17 18 16 13 10 4 5 5 2 3 3 4 5 6 6 5 6 5 5 4 6 5 6 3 3 5
5 5 6 11 8 5 9 8 6 7 7 11 14 14 15 20 20 16 17 20 19 20 21 20 19 17 12 11 7 5 5 4 3 1 2 4 6 5 6 5 5 5 4 4 3 4 5 4 3
7 9 13 11 3 8 8 7 5 7 10 11 19 12 11 14 18 21 21 20 23 23 18 18 17 17 12 15 10 15 7 6 5 5 3 4 5 5 5 5 5 4 3 3 2 2 2 3 4
10 9 11 10 7 2 4 3 10 1 7 10 11 16 18 20 22 23 24 25 26 20 20 17 14 14 15 15 14 12 7 4 4 3 7 4 4 4 4 5 4 3 2 1 1 2 3 2 1
6 4 3 5 3 3 17 9 5 5 8 4 8 18 16 17 22 23 24 25 20 17 14 15 18 17 15 14 14 16 17 11 7 5 5 4 2 2 2 4 4 3 3 1 0 1 1 1 0
5 5 5 5 1 11 5 5 9 9 10 11 10 12 11 16 20 25 24 20 18 20 20 17 18 17 16 15 13 14 13 12 11 9 6 6 4 2 3 4 4 3 2 2 1 1 2 2 1
7 9 8 7 5 7 3 7 10 12 10 8 6 9 7 10 15 21 28 25 23 22 22 21 20 17 16 15 14 10 10 8 6 8 6 6 5 4 5 5 5 4 3 1 1 0 2 2 3
6 3 6 5 1 3 5 10 2 0 5 11 8 8 10 12 15 21 22 21 22 23 25 25 21 17 17 17 12 10 10 10 8 8 7 5 5 4 6 6 5 4 1 1 1 2 4 2 3
3 5 4 3 5 6 5 5 2 8 11 11 15 13 15 9 9 17 20 24 23 22 20 21 20 20 19 15 12 10 9 7 7 8 8 8 6 6 7 6 5 4 2 3 2 2 4 3 4
6 7 6 3 3 5 4 4 5 5 7 9 12 11 10 10 3 6 15 22 23 18 18 19 18 17 16 14 11 11 9 8 7 8 7 7 7 7 7 6 5 4 4 4 3 4 5 5 5
12 4 5 3 7 4 2 2 5 2 6 10 13 13 13 12 10 7 5 8 9 13 14 17 16 15 15 14 13 13 10 10 9 7 7 8 8 7 7 6 5 5 6 5 5 6 5 5 6
Wind_Direction
142 150 293 42 56 59 284 254 142 212 203 211 277 185 207 144 182 209 73 148 128 140 158 163 165 149 144 141 137 136 134 128 119 116 112 108 107 107 105 102 99 100 92 76 60 51 46 36 26
129 119 33 74 90 88 261 258 237 218 173 4 245 4 67 282 14 114 116 140 133 142 151 158 165 150 145 145 144 144 141 134 128 124 120 114 110 108 105 102 104 105 87 51 28 22 16 12 3
167 109 88 100 117 184 220 237 265 257 156 164 101 96 258 251 54 154 136 133 132 147 159 163 159 154 150 150 149 146 141 136 137 134 128 123 117 110 108 111 111 113 100 44 7 355 350 347 348
136 18 33 94 221 251 205 209 213 225 352 170 99 328 3 193 161 132 136 132 138 150 158 160 158 152 148 148 147 144 143 139 140 140 139 136 132 124 119 118 119 116 116 51 344 338 333 332 331
46 55 84 106 244 260 212 210 250 140 154 256 145 225 114 94 108 133 136 144 146 150 157 151 150 149 149 148 147 146 145 144 143 143 148 144 136 137 136 136 134 149 168 237 305 314 315 315 320
64 104 90 185 240 283 265 208 300 241 192 142 163 120 196 136 137 144 147 153 151 147 154 146 146 145 145 147 147 144 142 143 144 147 148 143 153 158 159 156 168 211 243 273 294 301 303 312 315
135 113 217 167 174 272 226 141 275 220 240 173 148 146 119 181 156 146 153 147 150 146 144 144 144 148 147 147 145 145 145 145 148 152 155 157 163 176 188 200 231 260 276 290 299 306 304 304 307
125 114 207 225 165 222 214 150 236 244 252 115 151 194 198 191 161 139 132 131 134 143 148 151 147 144 143 150 152 149 149 153 154 159 162 165 181 200 226 251 281 286 298 311 315 313 314 309 307
145 76 216 234 138 220 160 223 251 260 156 198 178 148 146 187 148 135 132 129 133 156 159 156 150 147 147 145 161 158 160 159 158 162 162 148 147 285 276 282 289 300 314 310 313 313 310 305 308
145 169 213 213 119 105 198 246 270 179 196 192 207 204 159 170 159 153 161 167 170 172 174 165 154 152 148 157 153 151 157 134 136 129 139 120 177 254 271 343 334 324 336 342 346 345 345 347 331
196 208 211 210 240 214 182 255 244 264 211 179 211 151 161 175 167 164 173 175 176 170 165 172 169 162 165 152 143 137 118 128 132 138 128 92 77 68 62 60 28 37 42 30 25 12 9 0 357
247 242 233 316 301 287 279 126 261 253 219 222 176 160 174 180 177 174 174 174 166 169 167 172 173 171 175 145 154 144 138 139 107 110 115 106 79 65 65 62 51 51 34 33 23 10 1 12 7
206 272 276 274 266 252 282 213 200 249 262 182 167 160 180 192 185 181 170 172 169 166 168 175 170 174 172 156 144 145 140 127 127 116 113 105 98 90 82 73 61 48 26 35 25 18 22 17 3
221 231 255 264 258 247 265 281 145 241 249 188 162 174 181 187 190 172 174 170 176 168 170 169 176 171 162 151 156 143 130 131 130 132 120 110 109 105 98 84 55 41 38 33 49 31 15 2 351
248 296 304 246 256 236 214 286 215 198 175 163 179 180 184 186 189 192 177 173 175 173 165 169 164 155 159 155 148 138 142 132 130 122 120 105 101 102 95 76 53 30 32 36 35 23 13 7 353
343 82 273 313 239 247 158 253 231 189 152 182 189 190 185 183 196 188 178 175 176 165 163 162 164 158 145 151 142 144 139 134 124 126 113 106 98 94 87 83 57 36 47 31 34 22 2 359 353
7 246 276 309 219 252 186 242 260 165 171 202 193 191 196 165 194 194 183 177 169 165 155 153 147 153 146 137 129 123 134 123 136 127 116 116 106 100 99 89 62 50 48 36 25 18 21 349 338
241 253 264 248 305 74 278 270 285 106 354 176 189 210 189 174 192 192 178 166 158 156 156 150 150 144 140 127 108 91 107 117 126 125 124 125 113 105 97 88 74 57 50 32 22 29 345 13 334
200 246 253 264 271 320 270 257 262 202 182 224 186 197 185 195 200 177 159 158 153 157 159 158 153 157 147 151 147 142 156 148 115 144 146 136 121 113 120 103 79 63 60 30 21 12 18 358 350
194 235 275 283 262 175 272 271 253 211 209 217 251 214 190 154 176 170 171 168 170 165 168 166 167 167 169 160 157 139 135 129 128 148 143 143 133 140 122 103 90 78 68 36 33 37 1 355 15
227 203 243 243 297 244 263 290 267 258 212 219 218 217 194 172 175 177 180 183 173 177 180 177 174 171 168 152 123 92 84 72 88 146 158 177 158 147 123 117 105 88 78 53 36 42 39 13 342
244 206 236 253 140 255 134 271 270 244 221 204 203 192 185 186 183 181 184 184 189 191 181 179 175 172 169 165 151 160 156 156 189 168 167 163 169 151 139 120 101 103 102 62 28 40 74 62 23
232 235 213 231 212 230 219 130 256 308 228 235 234 228 223 181 185 188 189 191 196 183 185 181 173 176 175 175 165 161 153 149 141 138 151 164 169 152 145 129 134 137 121 106 51 13 35 83 70
216 281 66 51 113 222 230 181 254 200 219 259 231 244 219 182 191 193 196 194 192 185 179 180 181 183 179 172 166 174 175 158 143 147 154 165 155 164 155 151 151 146 153 156 220 42 61 14 322
159 74 305 316 21 234 151 139 224 219 222 231 223 232 226 209 192 191 193 194 190 190 185 181 183 184 182 167 176 175 179 167 158 158 156 152 149 173 174 136 130 127 148 172 131 322 302 296 260
211 168 167 222 211 260 230 230 248 217 235 259 258 242 228 201 198 204 190 189 192 189 189 181 183 180 179 172 182 171 154 166 158 158 154 165 156 163 158 140 137 151 152 157 103 246 266 242 258
321 166 230 192 245 84 233 281 105 254 1 342 312 301 266 209 202 197 197 201 196 188 188 184 182 183 179 178 169 172 157 156 165 158 148 149 145 154 163 158 157 159 182 267 244 250 277 262 267
66 317 5 4 189 228 269 270 263 0 344 338 343 331 313 298 233 201 193 195 197 199 192 182 181 180 179 167 167 160 157 147 152 149 151 155 150 158 162 166 174 182 203 242 250 265 273 264 265
1 14 338 285 149 201 192 258 346 316 341 359 359 344 337 339 325 227 211 196 195 187 183 180 180 171 168 159 150 146 155 154 150 156 149 159 154 165 172 184 183 194 222 240 243 254 261 257 269
78 39 42 56 307 296 246 206 269 280 23 26 17 3 9 357 348 6 120 140 171 178 175 173 173 169 165 160 153 159 152 148 149 156 164 162 173 176 182 185 189 208 226 229 231 255 257 255 267